User: anonymous   Login
Location: Whispering Pines Observatory
(39.4020°N, 104.7430°W)
Time: 06:14:26
(UTC-06:00)
Language:

MOS 1 Rocket - Orbit

View from above orbital plane
View from above orbital plane
View from above satellite
View from above satellite

Ground track
Ground track

The orbit data is extracted from the following two-line orbital elements,

1 17528U 87018B   14304.14507270  .00000564  00000-0  13364-3 0  5154
2 17528 097.4487 358.0089 0154853 067.5960 345.4413 14.50121279460709
Epoch (UTC): 31 October 2014 03:28:54
Eccentricity: 0.0154853
inclination: 97.4487°
perigee height: 615 km
apogee height: 835 km
right ascension of ascending node: 358.0089°
argument of perigee: 67.5960°
revolutions per day: 14.50121279
mean anomaly at epoch: 345.4413°
orbit number at epoch: 46070

The dashed part of the orbit path shows where the satellite is in the earth's shadow,  

DLR